Year,Month,Day,Hour,Minute,Value (Times are PST for temperature in C)
2017,05,22,00,00,15.10
2017,05,22,00,01,15.10
2017,05,22,00,02,15.00
2017,05,22,00,03,15.00
2017,05,22,00,04,14.90
2017,05,22,00,05,14.90
2017,05,22,00,06,14.90
2017,05,22,00,07,14.80
2017,05,22,00,08,14.80
2017,05,22,00,09,14.80
2017,05,22,00,10,14.80
2017,05,22,00,11,14.80
2017,05,22,00,12,14.80
2017,05,22,00,13,14.70
2017,05,22,00,14,14.70
2017,05,22,00,15,14.80
2017,05,22,00,16,14.80
2017,05,22,00,17,14.80
2017,05,22,00,18,14.80
2017,05,22,00,19,14.80
2017,05,22,00,20,14.80
2017,05,22,00,21,14.80
2017,05,22,00,22,14.80
2017,05,22,00,23,14.80
2017,05,22,00,24,14.80
2017,05,22,00,25,14.90
2017,05,22,00,26,14.90
2017,05,22,00,27,14.90
2017,05,22,00,28,14.90
2017,05,22,00,29,14.90
2017,05,22,00,30,14.90
2017,05,22,00,31,14.90
2017,05,22,00,32,14.90
2017,05,22,00,33,14.90
2017,05,22,00,34,14.90
2017,05,22,00,35,14.80
2017,05,22,00,36,14.80
2017,05,22,00,37,14.80
2017,05,22,00,38,14.80
2017,05,22,00,39,14.80
2017,05,22,00,40,14.80
2017,05,22,00,41,14.80
2017,05,22,00,42,14.70
2017,05,22,00,43,14.70
2017,05,22,00,44,14.60
2017,05,22,00,45,14.60
2017,05,22,00,46,14.50
2017,05,22,00,47,14.50
2017,05,22,00,48,14.40
2017,05,22,00,49,14.30
2017,05,22,00,50,14.30
2017,05,22,00,51,14.30
2017,05,22,00,52,14.30
2017,05,22,00,53,14.20
2017,05,22,00,54,14.20
2017,05,22,00,55,14.20
2017,05,22,00,56,14.20
2017,05,22,00,57,14.20
2017,05,22,00,58,14.20
2017,05,22,00,59,14.20
2017,05,22,01,00,14.20
2017,05,22,01,01,14.20
2017,05,22,01,02,14.20
2017,05,22,01,03,14.20
2017,05,22,01,04,14.10
2017,05,22,01,05,14.10
2017,05,22,01,06,14.10
2017,05,22,01,07,14.10
2017,05,22,01,08,14.10
2017,05,22,01,09,14.10
2017,05,22,01,10,14.10
2017,05,22,01,11,14.00
2017,05,22,01,12,14.00
2017,05,22,01,13,14.10
2017,05,22,01,14,14.10
2017,05,22,01,15,14.10
2017,05,22,01,16,14.10
2017,05,22,01,17,14.10
2017,05,22,01,18,14.20
2017,05,22,01,19,14.20
2017,05,22,01,20,14.20
2017,05,22,01,21,14.20
2017,05,22,01,22,14.20
2017,05,22,01,23,14.20
2017,05,22,01,24,14.20
2017,05,22,01,25,14.20
2017,05,22,01,26,14.20
2017,05,22,01,27,14.20
2017,05,22,01,28,14.20
2017,05,22,01,29,14.20
2017,05,22,01,30,14.20
2017,05,22,01,31,14.20
2017,05,22,01,32,14.20
2017,05,22,01,33,14.10
2017,05,22,01,34,14.10
2017,05,22,01,35,14.10
2017,05,22,01,36,14.00
2017,05,22,01,37,13.90
2017,05,22,01,38,13.90
2017,05,22,01,39,13.90
2017,05,22,01,40,13.80
2017,05,22,01,41,13.80
2017,05,22,01,42,13.80
2017,05,22,01,43,13.70
2017,05,22,01,44,13.70
2017,05,22,01,45,13.70
2017,05,22,01,46,13.70
2017,05,22,01,47,13.70
2017,05,22,01,48,13.60
2017,05,22,01,49,13.60
2017,05,22,01,50,13.60
2017,05,22,01,51,13.60
2017,05,22,01,52,13.60
2017,05,22,01,53,13.60
2017,05,22,01,54,13.60
2017,05,22,01,55,13.60
2017,05,22,01,56,13.60
2017,05,22,01,57,13.60
2017,05,22,01,58,13.60
2017,05,22,01,59,13.60
2017,05,22,02,00,13.60
2017,05,22,02,01,13.60
2017,05,22,02,02,13.60
2017,05,22,02,03,13.60
2017,05,22,02,04,13.60
2017,05,22,02,05,13.60
2017,05,22,02,06,13.50
2017,05,22,02,07,13.50
2017,05,22,02,08,13.50
2017,05,22,02,09,13.50
2017,05,22,02,10,13.50
2017,05,22,02,11,13.50
2017,05,22,02,12,13.50
2017,05,22,02,13,13.60
2017,05,22,02,14,13.50
2017,05,22,02,15,13.50
2017,05,22,02,16,13.50
2017,05,22,02,17,13.50
2017,05,22,02,18,13.50
2017,05,22,02,19,13.50
2017,05,22,02,20,13.50
2017,05,22,02,21,13.50
2017,05,22,02,22,13.50
2017,05,22,02,23,13.40
2017,05,22,02,24,13.40
2017,05,22,02,25,13.40
2017,05,22,02,26,13.30
2017,05,22,02,27,13.30
2017,05,22,02,28,13.30
2017,05,22,02,29,13.20
2017,05,22,02,30,13.20
2017,05,22,02,31,13.20
2017,05,22,02,32,13.20
2017,05,22,02,33,13.10
2017,05,22,02,34,13.10
2017,05,22,02,35,13.10
2017,05,22,02,36,13.10
2017,05,22,02,37,13.10
2017,05,22,02,38,13.10
2017,05,22,02,39,13.10
2017,05,22,02,40,13.10
2017,05,22,02,41,13.10
2017,05,22,02,42,13.10
2017,05,22,02,43,13.10
2017,05,22,02,44,13.00
2017,05,22,02,45,13.00
2017,05,22,02,46,13.00
2017,05,22,02,47,13.00
2017,05,22,02,48,12.90
2017,05,22,02,49,12.90
2017,05,22,02,50,12.90
2017,05,22,02,51,12.90
2017,05,22,02,52,12.90
2017,05,22,02,53,12.90
2017,05,22,02,54,13.00
2017,05,22,02,55,13.20
2017,05,22,02,56,13.30
2017,05,22,02,57,13.40
2017,05,22,02,58,13.40
2017,05,22,02,59,13.30
2017,05,22,03,00,13.30
2017,05,22,03,01,13.30
2017,05,22,03,02,13.20
2017,05,22,03,03,13.20
2017,05,22,03,04,13.10
2017,05,22,03,05,13.10
2017,05,22,03,06,13.10
2017,05,22,03,07,13.10
2017,05,22,03,08,13.10
2017,05,22,03,09,13.00
2017,05,22,03,10,13.00
2017,05,22,03,11,12.90
2017,05,22,03,12,12.90
2017,05,22,03,13,12.90
2017,05,22,03,14,12.90
2017,05,22,03,15,12.90
2017,05,22,03,16,12.90
2017,05,22,03,17,12.90
2017,05,22,03,18,12.90
2017,05,22,03,19,12.90
2017,05,22,03,20,12.80
2017,05,22,03,21,12.80
2017,05,22,03,22,12.80
2017,05,22,03,23,12.80
2017,05,22,03,24,12.70
2017,05,22,03,25,12.70
2017,05,22,03,26,12.70
2017,05,22,03,27,12.60
2017,05,22,03,28,12.60
2017,05,22,03,29,12.60
2017,05,22,03,30,12.50
2017,05,22,03,31,12.50
2017,05,22,03,32,12.50
2017,05,22,03,33,12.50
2017,05,22,03,34,12.50
2017,05,22,03,35,12.40
2017,05,22,03,36,12.40
2017,05,22,03,37,12.40
2017,05,22,03,38,12.40
2017,05,22,03,39,12.40
2017,05,22,03,40,12.40
2017,05,22,03,41,12.40
2017,05,22,03,42,12.40
2017,05,22,03,43,12.30
2017,05,22,03,44,12.30
2017,05,22,03,45,12.30
2017,05,22,03,46,12.30
2017,05,22,03,47,12.30
2017,05,22,03,48,12.30
2017,05,22,03,49,12.30
2017,05,22,03,50,12.30
2017,05,22,03,51,12.20
2017,05,22,03,52,12.20
2017,05,22,03,53,12.20
2017,05,22,03,54,12.20
2017,05,22,03,55,12.10
2017,05,22,03,56,12.10
2017,05,22,03,57,12.10
2017,05,22,03,58,12.00
2017,05,22,03,59,12.00
2017,05,22,04,00,12.00
2017,05,22,04,01,12.00
2017,05,22,04,02,12.00
2017,05,22,04,03,12.00
2017,05,22,04,04,12.00
2017,05,22,04,05,12.00
2017,05,22,04,06,11.90
2017,05,22,04,07,11.90
2017,05,22,04,08,11.90
2017,05,22,04,09,11.80
2017,05,22,04,10,11.80
2017,05,22,04,11,11.80
2017,05,22,04,12,11.80
2017,05,22,04,13,11.90
2017,05,22,04,14,11.90
2017,05,22,04,15,11.90
2017,05,22,04,16,11.90
2017,05,22,04,17,11.90
2017,05,22,04,18,11.90
2017,05,22,04,19,11.80
2017,05,22,04,20,11.80
2017,05,22,04,21,11.80
2017,05,22,04,22,11.70
2017,05,22,04,23,11.70
2017,05,22,04,24,11.70
2017,05,22,04,25,11.70
2017,05,22,04,26,11.70
2017,05,22,04,27,11.70
2017,05,22,04,28,11.70
2017,05,22,04,29,11.60
2017,05,22,04,30,11.60
2017,05,22,04,31,11.60
2017,05,22,04,32,11.60
2017,05,22,04,33,11.60
2017,05,22,04,34,11.50
2017,05,22,04,35,11.50
2017,05,22,04,36,11.50
2017,05,22,04,37,11.50
2017,05,22,04,38,11.40
2017,05,22,04,39,11.40
2017,05,22,04,40,11.40
2017,05,22,04,41,11.40
2017,05,22,04,42,11.40
2017,05,22,04,43,11.40
2017,05,22,04,44,11.40
2017,05,22,04,45,11.40
2017,05,22,04,46,11.40
2017,05,22,04,47,11.30
2017,05,22,04,48,11.30
2017,05,22,04,49,11.40
2017,05,22,04,50,11.40
2017,05,22,04,51,11.40
2017,05,22,04,52,11.40
2017,05,22,04,53,11.40
2017,05,22,04,54,11.40
2017,05,22,04,55,11.40
2017,05,22,04,56,11.40
2017,05,22,04,57,11.30
2017,05,22,04,58,11.30
2017,05,22,04,59,11.30
2017,05,22,05,00,11.30
2017,05,22,05,01,11.30
2017,05,22,05,02,11.30
2017,05,22,05,03,11.20
2017,05,22,05,04,11.20
2017,05,22,05,05,11.20
2017,05,22,05,06,11.20
2017,05,22,05,07,11.20
2017,05,22,05,08,11.10
2017,05,22,05,09,11.10
2017,05,22,05,10,11.10
2017,05,22,05,11,11.10
2017,05,22,05,12,11.10
2017,05,22,05,13,11.10
2017,05,22,05,14,11.10
2017,05,22,05,15,11.10
2017,05,22,05,16,11.10
2017,05,22,05,17,11.10
2017,05,22,05,18,11.10
2017,05,22,05,19,11.10
2017,05,22,05,20,11.10
2017,05,22,05,21,11.10
2017,05,22,05,22,11.10
2017,05,22,05,23,11.10
2017,05,22,05,24,11.10
2017,05,22,05,25,11.00
2017,05,22,05,26,11.00
2017,05,22,05,27,11.00
2017,05,22,05,28,10.90
2017,05,22,05,29,10.90
2017,05,22,05,30,10.90
2017,05,22,05,31,10.80
2017,05,22,05,32,10.80
2017,05,22,05,33,10.80
2017,05,22,05,34,10.70
2017,05,22,05,35,10.70
2017,05,22,05,36,10.70
2017,05,22,05,37,10.60
2017,05,22,05,38,10.60
2017,05,22,05,39,10.70
2017,05,22,05,40,10.70
2017,05,22,05,41,10.70
2017,05,22,05,42,10.70
2017,05,22,05,43,10.70
2017,05,22,05,44,10.70
2017,05,22,05,45,10.70
2017,05,22,05,46,10.70
2017,05,22,05,47,10.70
2017,05,22,05,48,10.70
2017,05,22,05,49,10.70
2017,05,22,05,50,10.70
2017,05,22,05,51,10.70
2017,05,22,05,52,10.70
2017,05,22,05,53,10.70
2017,05,22,05,54,10.70
2017,05,22,05,55,10.70
2017,05,22,05,56,10.70
2017,05,22,05,57,10.70
2017,05,22,05,58,10.70
2017,05,22,05,59,10.70
2017,05,22,06,00,10.70
2017,05,22,06,01,10.70
2017,05,22,06,02,10.70
2017,05,22,06,03,10.70
2017,05,22,06,04,10.70
2017,05,22,06,05,10.70
2017,05,22,06,06,10.70
2017,05,22,06,07,10.60
2017,05,22,06,08,10.60
2017,05,22,06,09,10.60
2017,05,22,06,10,10.60
2017,05,22,06,11,10.60
2017,05,22,06,12,10.60
2017,05,22,06,13,10.60
2017,05,22,06,14,10.50
2017,05,22,06,15,10.50
2017,05,22,06,16,10.50
2017,05,22,06,17,10.50
2017,05,22,06,18,10.40
2017,05,22,06,19,10.40
2017,05,22,06,20,10.40
2017,05,22,06,21,10.40
2017,05,22,06,22,10.40
2017,05,22,06,23,10.40
2017,05,22,06,24,10.40
2017,05,22,06,25,10.40
2017,05,22,06,26,10.50
2017,05,22,06,27,10.50
2017,05,22,06,28,10.60
2017,05,22,06,29,10.60
2017,05,22,06,30,10.70
2017,05,22,06,31,10.70
2017,05,22,06,32,10.70
2017,05,22,06,33,10.80
2017,05,22,06,34,10.80
2017,05,22,06,35,10.80
2017,05,22,06,36,10.80
2017,05,22,06,37,10.80
2017,05,22,06,38,10.80
2017,05,22,06,39,10.80
2017,05,22,06,40,10.80
2017,05,22,06,41,10.80
2017,05,22,06,42,10.80
2017,05,22,06,43,10.90
2017,05,22,06,44,10.90
2017,05,22,06,45,10.90
2017,05,22,06,46,10.90
2017,05,22,06,47,10.90
2017,05,22,06,48,10.90
2017,05,22,06,49,10.90
2017,05,22,06,50,10.90
2017,05,22,06,51,10.90
2017,05,22,06,52,11.00
2017,05,22,06,53,11.00
2017,05,22,06,54,11.10
2017,05,22,06,55,11.10
2017,05,22,06,56,11.10
2017,05,22,06,57,11.20
2017,05,22,06,58,11.20
2017,05,22,06,59,11.20
2017,05,22,07,00,11.30
2017,05,22,07,01,11.30
2017,05,22,07,02,11.40
2017,05,22,07,03,11.40
2017,05,22,07,04,11.50
2017,05,22,07,05,11.60
2017,05,22,07,06,11.60
2017,05,22,07,07,11.60
2017,05,22,07,08,11.70
2017,05,22,07,09,11.70
2017,05,22,07,10,11.80
2017,05,22,07,11,11.80
2017,05,22,07,12,11.90
2017,05,22,07,13,12.00
2017,05,22,07,14,12.00
2017,05,22,07,15,12.10
2017,05,22,07,16,12.10
2017,05,22,07,17,12.20
2017,05,22,07,18,12.20
2017,05,22,07,19,12.30
2017,05,22,07,20,12.40
2017,05,22,07,21,12.50
2017,05,22,07,22,12.50
2017,05,22,07,23,12.60
2017,05,22,07,24,12.70
2017,05,22,07,25,12.80
2017,05,22,07,26,12.80
2017,05,22,07,27,12.90
2017,05,22,07,28,13.00
2017,05,22,07,29,13.10
2017,05,22,07,30,13.20
2017,05,22,07,31,13.20
2017,05,22,07,32,13.30
2017,05,22,07,33,13.40
2017,05,22,07,34,13.40
2017,05,22,07,35,13.60
2017,05,22,07,36,13.70
2017,05,22,07,37,13.80
2017,05,22,07,38,13.90
2017,05,22,07,39,14.00
2017,05,22,07,40,14.10
2017,05,22,07,41,14.20
2017,05,22,07,42,14.30
2017,05,22,07,43,14.50
2017,05,22,07,44,14.60
2017,05,22,07,45,14.80
2017,05,22,07,46,14.90
2017,05,22,07,47,15.00
2017,05,22,07,48,15.10
2017,05,22,07,49,15.30
2017,05,22,07,50,15.40
2017,05,22,07,51,15.50
2017,05,22,07,52,15.60
2017,05,22,07,53,15.70
2017,05,22,07,54,15.80
2017,05,22,07,55,15.90
2017,05,22,07,56,16.00
2017,05,22,07,57,16.10
2017,05,22,07,58,16.20
2017,05,22,07,59,16.20
2017,05,22,08,00,16.30
2017,05,22,08,01,16.30
2017,05,22,08,02,16.30
2017,05,22,08,03,16.30
2017,05,22,08,04,16.20
2017,05,22,08,05,16.20
2017,05,22,08,06,16.30
2017,05,22,08,07,16.30
2017,05,22,08,08,16.30
2017,05,22,08,09,16.30
2017,05,22,08,10,16.40
2017,05,22,08,11,16.40
2017,05,22,08,12,16.40
2017,05,22,08,13,16.50
2017,05,22,08,14,16.50
2017,05,22,08,15,16.40
2017,05,22,08,16,16.40
2017,05,22,08,17,16.40
2017,05,22,08,18,16.40
2017,05,22,08,19,16.50
2017,05,22,08,20,16.50
2017,05,22,08,21,16.50
2017,05,22,08,22,16.60
2017,05,22,08,23,16.60
2017,05,22,08,24,16.50
2017,05,22,08,25,16.50
2017,05,22,08,26,16.50
2017,05,22,08,27,16.50
2017,05,22,08,28,16.50
2017,05,22,08,29,16.60
2017,05,22,08,30,16.60
2017,05,22,08,31,16.60
2017,05,22,08,32,16.60
2017,05,22,08,33,16.60
2017,05,22,08,34,16.60
2017,05,22,08,35,16.70
2017,05,22,08,36,16.70
2017,05,22,08,37,16.70
2017,05,22,08,38,16.70
2017,05,22,08,39,16.70
2017,05,22,08,40,16.70
2017,05,22,08,41,16.70
2017,05,22,08,42,16.70
2017,05,22,08,43,16.70
2017,05,22,08,44,16.80
2017,05,22,08,45,16.80
2017,05,22,08,46,16.80
2017,05,22,08,47,16.90
2017,05,22,08,48,16.90
2017,05,22,08,49,17.00
2017,05,22,08,50,17.00
2017,05,22,08,51,17.10
2017,05,22,08,52,17.10
2017,05,22,08,53,17.10
2017,05,22,08,54,17.10
2017,05,22,08,55,17.10
2017,05,22,08,56,17.10
2017,05,22,08,57,17.10
2017,05,22,08,58,17.10
2017,05,22,08,59,17.20
2017,05,22,09,00,17.20
2017,05,22,09,01,17.20
2017,05,22,09,02,17.20
2017,05,22,09,03,17.30
2017,05,22,09,04,17.30
2017,05,22,09,05,17.40
2017,05,22,09,06,17.50
2017,05,22,09,07,17.50
2017,05,22,09,08,17.50
2017,05,22,09,09,17.40
2017,05,22,09,10,17.40
2017,05,22,09,11,17.50
2017,05,22,09,12,17.50
2017,05,22,09,13,17.60
2017,05,22,09,14,17.60
2017,05,22,09,15,17.60
2017,05,22,09,16,17.70
2017,05,22,09,17,17.70
2017,05,22,09,18,17.70
2017,05,22,09,19,17.70
2017,05,22,09,20,17.70
2017,05,22,09,21,17.70
2017,05,22,09,22,17.70
2017,05,22,09,23,17.70
2017,05,22,09,24,17.70
2017,05,22,09,25,17.80
2017,05,22,09,26,17.80
2017,05,22,09,27,17.90
2017,05,22,09,28,17.90
2017,05,22,09,29,17.90
2017,05,22,09,30,17.90
2017,05,22,09,31,18.00
2017,05,22,09,32,18.00
2017,05,22,09,33,18.00
2017,05,22,09,34,18.00
2017,05,22,09,35,18.00
2017,05,22,09,36,18.10
2017,05,22,09,37,18.10
2017,05,22,09,38,18.10
2017,05,22,09,39,18.20
2017,05,22,09,40,18.20
2017,05,22,09,41,18.30
2017,05,22,09,42,18.40
2017,05,22,09,43,18.50
2017,05,22,09,44,18.70
2017,05,22,09,45,18.80
2017,05,22,09,46,18.90
2017,05,22,09,47,19.00
2017,05,22,09,48,19.10
2017,05,22,09,49,19.20
2017,05,22,09,50,19.20
2017,05,22,09,51,19.20
2017,05,22,09,52,19.30
2017,05,22,09,53,19.30
2017,05,22,09,54,19.30
2017,05,22,09,55,19.30
2017,05,22,09,56,19.30
2017,05,22,09,57,19.30
2017,05,22,09,58,19.30
2017,05,22,09,59,19.40
2017,05,22,10,00,19.40
2017,05,22,10,01,19.40
2017,05,22,10,02,19.40
2017,05,22,10,03,19.40
2017,05,22,10,04,19.40
2017,05,22,10,05,19.30
2017,05,22,10,06,19.30
2017,05,22,10,07,19.30
2017,05,22,10,08,19.30
2017,05,22,10,09,19.30
2017,05,22,10,10,19.30
2017,05,22,10,11,19.40
2017,05,22,10,12,19.40
2017,05,22,10,13,19.40
2017,05,22,10,14,19.40
2017,05,22,10,15,19.40
2017,05,22,10,16,19.40
2017,05,22,10,17,19.50
2017,05,22,10,18,19.50
2017,05,22,10,19,19.60
2017,05,22,10,20,19.60
2017,05,22,10,21,19.70
2017,05,22,10,22,19.70
2017,05,22,10,23,19.70
2017,05,22,10,24,19.80
2017,05,22,10,25,19.80
2017,05,22,10,26,19.90
2017,05,22,10,27,20.00
2017,05,22,10,28,20.10
2017,05,22,10,29,20.10
2017,05,22,10,30,20.10
2017,05,22,10,31,20.10
2017,05,22,10,32,20.10
2017,05,22,10,33,20.10
2017,05,22,10,34,20.20
2017,05,22,10,35,20.20
2017,05,22,10,36,20.20
2017,05,22,10,37,20.20
2017,05,22,10,38,20.30
2017,05,22,10,39,20.30
2017,05,22,10,40,20.40
2017,05,22,10,41,20.50
2017,05,22,10,42,20.60
2017,05,22,10,43,20.70
2017,05,22,10,44,20.70
2017,05,22,10,45,20.80
2017,05,22,10,46,20.90
2017,05,22,10,47,21.00
2017,05,22,10,48,21.10
2017,05,22,10,49,21.20
2017,05,22,10,50,21.20
2017,05,22,10,51,21.20
2017,05,22,10,52,21.10
2017,05,22,10,53,21.10
2017,05,22,10,54,21.10
2017,05,22,10,55,21.10
2017,05,22,10,56,21.10
2017,05,22,10,57,21.10
2017,05,22,10,58,21.20
2017,05,22,10,59,21.20
2017,05,22,11,00,21.20
2017,05,22,11,01,21.20
2017,05,22,11,02,21.20
2017,05,22,11,03,21.20
2017,05,22,11,04,21.20
2017,05,22,11,05,21.20
2017,05,22,11,06,21.20
2017,05,22,11,07,21.20
2017,05,22,11,08,21.20
2017,05,22,11,09,21.20
2017,05,22,11,10,21.20
2017,05,22,11,11,21.30
2017,05,22,11,12,21.30
2017,05,22,11,13,21.40
2017,05,22,11,14,21.50
2017,05,22,11,15,21.60
2017,05,22,11,16,21.70
2017,05,22,11,17,21.70
2017,05,22,11,18,21.70
2017,05,22,11,19,21.70
2017,05,22,11,20,21.70
2017,05,22,11,21,21.70
2017,05,22,11,22,21.80
2017,05,22,11,23,21.80
2017,05,22,11,24,21.80
2017,05,22,11,25,21.80
2017,05,22,11,26,21.80
2017,05,22,11,27,21.70
2017,05,22,11,28,21.70
2017,05,22,11,29,21.70
2017,05,22,11,30,21.80
2017,05,22,11,31,21.80
2017,05,22,11,32,21.80
2017,05,22,11,33,21.70
2017,05,22,11,34,21.80
2017,05,22,11,35,21.80
2017,05,22,11,36,21.90
2017,05,22,11,37,21.90
2017,05,22,11,38,22.00
2017,05,22,11,39,22.00
2017,05,22,11,40,22.00
2017,05,22,11,41,21.90
2017,05,22,11,42,21.80
2017,05,22,11,43,21.80
2017,05,22,11,44,21.70
2017,05,22,11,45,21.70
2017,05,22,11,46,21.70
2017,05,22,11,47,21.80
2017,05,22,11,48,21.80
2017,05,22,11,49,21.80
2017,05,22,11,50,21.90
2017,05,22,11,51,21.90
2017,05,22,11,52,21.90
2017,05,22,11,53,22.00
2017,05,22,11,54,22.00
2017,05,22,11,55,22.10
2017,05,22,11,56,22.10
2017,05,22,11,57,22.10
2017,05,22,11,58,22.10
2017,05,22,11,59,22.10
2017,05,22,12,00,22.00
2017,05,22,12,01,22.00
2017,05,22,12,02,22.00
2017,05,22,12,03,22.10
2017,05,22,12,04,22.20
2017,05,22,12,05,22.20
2017,05,22,12,06,22.30
2017,05,22,12,07,22.40
2017,05,22,12,08,22.40
2017,05,22,12,09,22.40
2017,05,22,12,10,22.50
2017,05,22,12,11,22.50
2017,05,22,12,12,22.50
2017,05,22,12,13,22.60
2017,05,22,12,14,22.60
2017,05,22,12,15,22.60
2017,05,22,12,16,22.60
2017,05,22,12,17,22.60
2017,05,22,12,18,22.70
2017,05,22,12,19,22.80
2017,05,22,12,20,22.80
2017,05,22,12,21,22.90
2017,05,22,12,22,22.90
2017,05,22,12,23,22.90
2017,05,22,12,24,22.90
2017,05,22,12,25,23.00
2017,05,22,12,26,23.00
2017,05,22,12,27,23.10
2017,05,22,12,28,23.10
2017,05,22,12,29,23.20
2017,05,22,12,30,23.20
2017,05,22,12,31,23.30
2017,05,22,12,32,23.30
2017,05,22,12,33,23.40
2017,05,22,12,34,23.50
2017,05,22,12,35,23.60
2017,05,22,12,36,23.70
2017,05,22,12,37,23.70
2017,05,22,12,38,23.70
2017,05,22,12,39,23.70
2017,05,22,12,40,23.60
2017,05,22,12,41,23.50
2017,05,22,12,42,23.50
2017,05,22,12,43,23.50
2017,05,22,12,44,23.40
2017,05,22,12,45,23.40
2017,05,22,12,46,23.30
2017,05,22,12,47,23.30
2017,05,22,12,48,23.30
2017,05,22,12,49,23.20
2017,05,22,12,50,23.20
2017,05,22,12,51,23.20
2017,05,22,12,52,23.10
2017,05,22,12,53,23.00
2017,05,22,12,54,22.80
2017,05,22,12,55,22.70
2017,05,22,12,56,22.60
2017,05,22,12,57,22.60
2017,05,22,12,58,22.50
2017,05,22,12,59,22.40
2017,05,22,13,00,22.40
2017,05,22,13,01,22.40
2017,05,22,13,02,22.30
2017,05,22,13,03,22.30
2017,05,22,13,04,22.30
2017,05,22,13,05,22.20
2017,05,22,13,06,22.20
2017,05,22,13,07,22.10
2017,05,22,13,08,22.10
2017,05,22,13,09,22.10
2017,05,22,13,10,22.10
2017,05,22,13,11,22.10
2017,05,22,13,12,22.10
2017,05,22,13,13,22.10
2017,05,22,13,14,22.10
2017,05,22,13,15,22.10
2017,05,22,13,16,22.10
2017,05,22,13,17,22.00
2017,05,22,13,18,22.00
2017,05,22,13,19,22.00
2017,05,22,13,20,22.10
2017,05,22,13,21,22.10
2017,05,22,13,22,22.20
2017,05,22,13,23,22.20
2017,05,22,13,24,22.30
2017,05,22,13,25,22.40
2017,05,22,13,26,22.50
2017,05,22,13,27,22.60
2017,05,22,13,28,22.60
2017,05,22,13,29,22.70
2017,05,22,13,30,22.70
2017,05,22,13,31,22.70
2017,05,22,13,32,22.70
2017,05,22,13,33,22.80
2017,05,22,13,34,22.80
2017,05,22,13,35,22.90
2017,05,22,13,36,23.00
2017,05,22,13,37,23.10
2017,05,22,13,38,23.20
2017,05,22,13,39,23.20
2017,05,22,13,40,23.20
2017,05,22,13,41,23.20
2017,05,22,13,42,23.10
2017,05,22,13,43,23.10
2017,05,22,13,44,23.00
2017,05,22,13,45,23.00
2017,05,22,13,46,23.00
2017,05,22,13,47,23.00
2017,05,22,13,48,22.90
2017,05,22,13,49,22.90
2017,05,22,13,50,22.90
2017,05,22,13,51,22.90
2017,05,22,13,52,22.90
2017,05,22,13,53,22.90
2017,05,22,13,54,22.80
2017,05,22,13,55,22.70
2017,05,22,13,56,22.50
2017,05,22,13,57,22.40
2017,05,22,13,58,22.30
2017,05,22,13,59,22.20
2017,05,22,14,00,22.10
2017,05,22,14,01,22.10
2017,05,22,14,02,22.10
2017,05,22,14,03,22.10
2017,05,22,14,04,22.10
2017,05,22,14,05,22.20
2017,05,22,14,06,22.20
2017,05,22,14,07,22.20
2017,05,22,14,08,22.10
2017,05,22,14,09,22.10
2017,05,22,14,10,22.20
2017,05,22,14,11,22.20
2017,05,22,14,12,22.20
2017,05,22,14,13,22.30
2017,05,22,14,14,22.30
2017,05,22,14,15,22.30
2017,05,22,14,16,22.30
2017,05,22,14,17,22.30
2017,05,22,14,18,22.20
2017,05,22,14,19,22.20
2017,05,22,14,20,22.20
2017,05,22,14,21,22.30
2017,05,22,14,22,22.30
2017,05,22,14,23,22.40
2017,05,22,14,24,22.40
2017,05,22,14,25,22.50
2017,05,22,14,26,22.50
2017,05,22,14,27,22.60
2017,05,22,14,28,22.70
2017,05,22,14,29,22.80
2017,05,22,14,30,22.90
2017,05,22,14,31,23.10
2017,05,22,14,32,23.20
2017,05,22,14,33,23.20
2017,05,22,14,34,23.30
2017,05,22,14,35,23.40
2017,05,22,14,36,23.40
2017,05,22,14,37,23.60
2017,05,22,14,38,23.70
2017,05,22,14,39,23.80
2017,05,22,14,40,24.00
2017,05,22,14,41,24.10
2017,05,22,14,42,24.30
2017,05,22,14,43,24.40
2017,05,22,14,44,24.60
2017,05,22,14,45,24.60
2017,05,22,14,46,24.70
2017,05,22,14,47,24.70
2017,05,22,14,48,24.70
2017,05,22,14,49,24.80
2017,05,22,14,50,24.80
2017,05,22,14,51,24.80
2017,05,22,14,52,24.80
2017,05,22,14,53,24.80
2017,05,22,14,54,24.80
2017,05,22,14,55,24.80
2017,05,22,14,56,24.70
2017,05,22,14,57,24.70
2017,05,22,14,58,24.60
2017,05,22,14,59,24.60
2017,05,22,15,00,24.50
2017,05,22,15,01,24.50
2017,05,22,15,02,24.50
2017,05,22,15,03,24.50
2017,05,22,15,04,24.40
2017,05,22,15,05,24.30
2017,05,22,15,06,24.20
2017,05,22,15,07,24.20
2017,05,22,15,08,24.20
2017,05,22,15,09,24.10
2017,05,22,15,10,24.10
2017,05,22,15,11,24.00
2017,05,22,15,12,24.00
2017,05,22,15,13,23.90
2017,05,22,15,14,23.80
2017,05,22,15,15,23.80
2017,05,22,15,16,23.80
2017,05,22,15,17,23.80
2017,05,22,15,18,23.90
2017,05,22,15,19,23.80
2017,05,22,15,20,23.90
2017,05,22,15,21,23.90
2017,05,22,15,22,24.00
2017,05,22,15,23,24.00
2017,05,22,15,24,24.10
2017,05,22,15,25,24.10
2017,05,22,15,26,24.10
2017,05,22,15,27,24.10
2017,05,22,15,28,24.10
2017,05,22,15,29,24.10
2017,05,22,15,30,24.20
2017,05,22,15,31,24.20
2017,05,22,15,32,24.20
2017,05,22,15,33,24.30
2017,05,22,15,34,24.40
2017,05,22,15,35,24.50
2017,05,22,15,36,24.60
2017,05,22,15,37,24.70
2017,05,22,15,38,24.80
2017,05,22,15,39,24.80
2017,05,22,15,40,24.80
2017,05,22,15,41,24.80
2017,05,22,15,42,24.80
2017,05,22,15,43,24.80
2017,05,22,15,44,24.80
2017,05,22,15,45,24.80
2017,05,22,15,46,24.80
2017,05,22,15,47,24.90
2017,05,22,15,48,25.00
2017,05,22,15,49,25.00
2017,05,22,15,50,25.10
2017,05,22,15,51,25.10
2017,05,22,15,52,25.10
2017,05,22,15,53,25.10
2017,05,22,15,54,25.20
2017,05,22,15,55,25.30
2017,05,22,15,56,25.30
2017,05,22,15,57,25.40
2017,05,22,15,58,25.40
2017,05,22,15,59,25.50
2017,05,22,16,00,25.50
2017,05,22,16,01,25.60
2017,05,22,16,02,25.60
2017,05,22,16,03,25.60
2017,05,22,16,04,25.50
2017,05,22,16,05,25.40
2017,05,22,16,06,25.30
2017,05,22,16,07,25.20
2017,05,22,16,08,25.20
2017,05,22,16,09,25.10
2017,05,22,16,10,25.00
2017,05,22,16,11,25.00
2017,05,22,16,12,25.00
2017,05,22,16,13,25.00
2017,05,22,16,14,25.00
2017,05,22,16,15,25.10
2017,05,22,16,16,25.10
2017,05,22,16,17,25.10
2017,05,22,16,18,25.20
2017,05,22,16,19,25.20
2017,05,22,16,20,25.30
2017,05,22,16,21,25.30
2017,05,22,16,22,25.30
2017,05,22,16,23,25.30
2017,05,22,16,24,25.30
2017,05,22,16,25,25.30
2017,05,22,16,26,25.30
2017,05,22,16,27,25.30
2017,05,22,16,28,25.30
2017,05,22,16,29,25.30
2017,05,22,16,30,25.30
2017,05,22,16,31,25.40
2017,05,22,16,32,25.40
2017,05,22,16,33,25.40
2017,05,22,16,34,25.40
2017,05,22,16,35,25.40
2017,05,22,16,36,25.50
2017,05,22,16,37,25.50
2017,05,22,16,38,25.60
2017,05,22,16,39,25.70
2017,05,22,16,40,25.70
2017,05,22,16,41,25.80
2017,05,22,16,42,25.90
2017,05,22,16,43,25.90
2017,05,22,16,44,26.00
2017,05,22,16,45,26.10
2017,05,22,16,46,26.10
2017,05,22,16,47,26.20
2017,05,22,16,48,26.20
2017,05,22,16,49,26.30
2017,05,22,16,50,26.30
2017,05,22,16,51,26.40
2017,05,22,16,52,26.40
2017,05,22,16,53,26.50
2017,05,22,16,54,26.60
2017,05,22,16,55,26.60
2017,05,22,16,56,26.70
2017,05,22,16,57,26.70
2017,05,22,16,58,26.80
2017,05,22,16,59,26.80
2017,05,22,17,00,26.90
2017,05,22,17,01,26.90
2017,05,22,17,02,26.90
2017,05,22,17,03,26.90
2017,05,22,17,04,26.80
2017,05,22,17,05,26.80
2017,05,22,17,06,26.80
2017,05,22,17,07,26.80
2017,05,22,17,08,26.80
2017,05,22,17,09,26.70
2017,05,22,17,10,26.70
2017,05,22,17,11,26.60
2017,05,22,17,12,26.60
2017,05,22,17,13,26.50
2017,05,22,17,14,26.50
2017,05,22,17,15,26.40
2017,05,22,17,16,26.40
2017,05,22,17,17,26.30
2017,05,22,17,18,26.20
2017,05,22,17,19,26.10